TimeEDT,TemperatureF,Dew PointF,Humidity,Sea Level PressureIn,VisibilityMPH,Wind Direction,Wind SpeedMPH,Gust SpeedMPH,PrecipitationIn,Events,Conditions,WindDirDegrees,DateUTC
12:53 AM,43.0,28.0,56,30.10,10.0,NW,4.6,-,N/A,,Mostly Cloudy,320,2013-03-29 04:53:00
1:53 AM,35.1,28.0,76,30.11,10.0,Calm,Calm,-,N/A,,Clear,0,2013-03-29 05:53:00
2:53 AM,34.0,27.0,75,30.11,10.0,Calm,Calm,-,N/A,,Clear,0,2013-03-29 06:53:00
3:53 AM,32.0,27.0,82,30.10,10.0,Calm,Calm,-,N/A,,Partly Cloudy,0,2013-03-29 07:53:00
4:53 AM,30.0,26.1,85,30.11,10.0,Calm,Calm,-,N/A,,Clear,0,2013-03-29 08:53:00
5:53 AM,28.9,25.0,85,30.11,10.0,Calm,Calm,-,N/A,,Clear,0,2013-03-29 09:53:00
6:53 AM,28.0,24.1,85,30.12,10.0,Calm,Calm,-,N/A,,Clear,0,2013-03-29 10:53:00
7:53 AM,30.9,27.0,85,30.13,10.0,Calm,Calm,-,N/A,,Clear,0,2013-03-29 11:53:00
8:53 AM,39.0,30.0,70,30.13,10.0,Calm,Calm,-,N/A,,Clear,0,2013-03-29 12:53:00
9:53 AM,45.0,28.9,53,30.12,10.0,Variable,3.5,-,N/A,,Clear,0,2013-03-29 13:53:00
10:53 AM,50.0,27.0,41,30.11,10.0,Variable,3.5,-,N/A,,Clear,0,2013-03-29 14:53:00
11:53 AM,52.0,27.0,38,30.09,10.0,WNW,8.1,-,N/A,,Partly Cloudy,300,2013-03-29 15:53:00
12:53 PM,51.1,26.1,38,30.07,10.0,NW,5.8,-,N/A,,Mostly Cloudy,320,2013-03-29 16:53:00
1:53 PM,53.1,25.0,34,30.05,10.0,WSW,6.9,-,N/A,,Overcast,250,2013-03-29 17:53:00
2:53 PM,52.0,25.0,35,30.04,10.0,WNW,3.5,-,N/A,,Overcast,290,2013-03-29 18:53:00
3:53 PM,51.1,25.0,36,30.03,10.0,NW,11.5,-,N/A,,Overcast,310,2013-03-29 19:53:00
4:53 PM,50.0,26.1,39,30.05,10.0,NW,10.4,-,N/A,,Overcast,320,2013-03-29 20:53:00
5:53 PM,48.0,27.0,44,30.06,10.0,NW,9.2,-,N/A,,Overcast,320,2013-03-29 21:53:00
6:53 PM,46.9,27.0,46,30.07,10.0,WNW,8.1,-,N/A,,Overcast,290,2013-03-29 22:53:00
7:53 PM,46.0,26.1,46,30.08,10.0,WNW,9.2,-,N/A,,Overcast,300,2013-03-29 23:53:00
8:53 PM,45.0,27.0,49,30.09,10.0,WNW,5.8,-,N/A,,Overcast,290,2013-03-30 00:53:00
9:53 PM,44.1,28.0,53,30.10,10.0,WNW,6.9,-,N/A,,Overcast,300,2013-03-30 01:53:00
10:53 PM,43.0,27.0,53,30.11,10.0,NW,4.6,-,N/A,,Partly Cloudy,310,2013-03-30 02:53:00
11:53 PM,37.9,27.0,65,30.11,10.0,West,5.8,-,N/A,,Partly Cloudy,260,2013-03-30 03:53:00